Home > Time Zones > World Clock > Weather > Iran > Tabriz > Past weeks

Flag for Iran Weather past 2 weeks in Tabriz, Iran

Now
79 °F

Passing clouds.


Feels Like: 78 °F
Forecast: 76 / 98 °F
Wind: 9 mph from Northeast

Location: Tabriz Airport

Current Time: Aug 1, 2015 at 6:09:43 AM

Latest Report: Aug 1, 2015 at 5:30 AM


Visibility: N/A

Pressure: 30.01 "Hg (25.61 "Hg at 1388m altitude)

Humidity: 24%

Dew point: 39 °F

Location of TabrizLocation

Historic Weather in Tabriz — Graph

°F

Tabriz temperature yesterday

Maximum temperature yesterday: 97 °F (at 3:00 PM)
Minimum temperature yesterday: 77 °F (at 6:00 AM)
Average temperature yesterday: 87 °F

Past Weeks' High & Low Weather Summary

 TemperatureHumidityPressure
High97 °F (Jul 26, 6:00 PM)68% (Jul 18, 5:30 AM)30.12 "Hg (Jul 18, 5:30 AM)
Low61 °F (Jul 20, 6:00 AM)7% (Jul 21, 6:30 PM)29.77 "Hg (Jul 27, 5:20 PM)
Average80 °F29%29.99 "Hg
* Reported Jul 17 4:30 AM — Aug 1 5:00 AM, Tabriz, Weather by CustomWeather, © 2015

Note: Actual official high and low records may vary slightly from our data, if they occured in-between our weather recording intervals... More about our weather records

Advertising

Tabriz weather history for previous 24 hours

 ConditionsComfort  
Time TempWeatherWind HumidityBarometerVisibility
5:00 AM
Sat, Aug 1
75 °FClear.5 mph29%30.04 "Hg10 mi
4:30 AM79 °FClear.No wind28%30.04 "Hg10 mi
4:00 AM79 °FClear.5 mph28%30.01 "Hg10 mi
3:30 AM77 °FClear.5 mph30%30.01 "Hg10 mi
3:00 AM81 °FPassing clouds.7 mph24%30.01 "HgN/A
2:30 AM82 °FPassing clouds.12 mph23%30.01 "HgN/A
2:00 AM82 °FPassing clouds.9 mph25%30.01 "HgN/A
1:30 AM82 °FPassing clouds.16 mph25%30.04 "HgN/A
1:00 AM82 °FPassing clouds.18 mph25%30.04 "HgN/A
12:30 AM84 °FPassing clouds.7 mph23%30.04 "HgN/A
12:00 AM84 °FPassing clouds.9 mph23%30.04 "HgN/A
11:30 PM
Fri, Jul 31
84 °FPassing clouds.12 mph23%30.04 "HgN/A
11:00 PM86 °FPassing clouds.14 mph20%30.04 "HgN/A
10:30 PM86 °FPassing clouds.7 mph20%30.04 "HgN/A
10:00 PM88 °FPassing clouds.12 mph19%29.98 "HgN/A
9:30 PM88 °FPassing clouds.9 mph19%29.98 "HgN/A
9:00 PM91 °FPassing clouds.14 mph15%29.98 "HgN/A
8:30 PM91 °FPassing clouds.16 mph15%29.98 "HgN/A
8:00 PM93 °FScattered clouds.9 mph13%29.98 "HgN/A
7:30 PM95 °FPassing clouds.7 mph14%29.98 "HgN/A
7:00 PM95 °FPassing clouds.5 mph11%29.98 "HgN/A
6:30 PM95 °FPassing clouds.12 mph12%29.98 "HgN/A
6:00 PM97 °FPassing clouds.5 mph11%29.98 "HgN/A
5:30 PM95 °FPassing clouds.12 mph20%29.98 "HgN/A
5:00 PM95 °FPassing clouds.7 mph20%29.98 "HgN/A
4:30 PM97 °FPassing clouds.7 mph16%29.98 "HgN/A
4:00 PM97 °FPassing clouds.9 mph13%29.98 "HgN/A
3:30 PM95 °FPassing clouds.5 mph14%29.98 "HgN/A
3:00 PM97 °FPassing clouds.9 mph13%30.01 "HgN/A
2:30 PM95 °FPassing clouds.7 mph13%30.01 "HgN/A
2:00 PM93 °FPassing clouds.7 mph15%30.04 "HgN/A
1:30 PM93 °FPassing clouds.9 mph14%30.07 "HgN/A
1:00 PM91 °FPassing clouds.9 mph16%30.07 "HgN/A
12:00 PM91 °FPassing clouds.7 mph17%30.07 "HgN/A
11:30 AM90 °FPassing clouds.9 mph18%30.07 "HgN/A
11:00 AM88 °FPassing clouds.12 mph19%30.07 "HgN/A
10:30 AM86 °FSunny.16 mph19%30.07 "Hg10 mi
10:00 AM84 °FSunny.14 mph22%30.07 "Hg10 mi
9:30 AM82 °FSunny.9 mph23%30.07 "Hg10 mi
9:00 AM82 °FSunny.12 mph23%30.07 "Hg10 mi
8:30 AM81 °FSunny.9 mph26%30.07 "Hg10 mi
8:00 AM79 °FSunny.9 mph26%30.07 "Hg10 mi
7:30 AM79 °FClear.18 mph28%30.07 "Hg10 mi
7:00 AM77 °FClear.14 mph30%30.07 "Hg10 mi
6:30 AM79 °FClear.12 mph26%30.07 "Hg10 mi
6:00 AM77 °FClear.9 mph30%30.04 "Hg10 mi
Weather by CustomWeather, © 2015

See weather overviewHow to use our weather pages